Probability
4 2 1 0 0 0 0 0 0 0 0 0 0 0 0 0 0 0 1 2 3 3 3 2 1 0 0 0 0 0 0 0 0 0 0 1 2 3 1 0 0 0 0 0 0 0 0 0 0
1 1 0 0 0 0 0 0 0 0 0 0 0 0 0 0 0 0 1 2 3 3 3 2 1 0 0 0 0 0 0 0 0 0 0 1 2 2 1 0 0 0 0 0 0 0 0 1 1
0 0 0 0 0 0 0 0 0 0 0 0 0 0 0 0 0 0 0 1 3 3 3 3 3 1 0 0 0 0 0 0 0 0 0 0 1 1 1 0 0 0 0 0 0 0 1 2 2
1 1 0 0 0 0 0 0 0 0 0 0 0 0 0 0 0 0 0 1 2 3 3 3 3 1 0 0 1 1 0 0 0 0 0 0 0 0 0 0 0 0 0 0 0 0 1 2 3
1 1 0 0 0 0 0 0 0 0 0 0 0 0 0 0 0 0 0 0 1 3 3 3 3 1 1 1 1 1 0 0 0 1 1 1 1 1 1 1 1 1 0 0 0 0 1 2 2
1 0 0 0 0 0 0 0 0 0 0 0 0 0 0 0 0 0 1 1 1 2 3 3 3 3 2 1 1 1 1 1 1 2 2 2 2 2 3 3 3 2 1 0 0 0 0 1 1
0 0 0 0 0 0 0 0 0 0 0 0 0 0 0 0 0 1 2 2 1 2 3 3 3 3 2 1 2 3 3 2 3 3 3 3 3 4 4 4 4 3 1 1 1 0 0 0 0
0 0 0 0 0 0 0 0 0 0 0 0 0 0 0 0 0 1 2 2 1 1 2 3 3 2 1 1 4 4 4 3 3 3 3 3 4 4 4 4 3 3 3 2 2 1 0 0 0
0 0 0 0 0 0 0 0 0 0 0 0 0 0 0 0 0 1 3 3 1 0 1 2 2 1 0 1 2 3 3 3 3 3 3 3 3 4 3 3 3 3 3 3 3 2 1 0 0
0 0 0 0 0 0 0 0 0 0 0 1 1 0 0 0 1 2 3 4 2 1 0 1 1 0 0 0 1 1 2 2 3 3 3 3 3 3 3 3 3 3 3 3 3 3 2 1 0
0 0 0 0 0 0 0 0 0 0 1 2 3 1 0 0 1 2 3 4 3 1 1 2 2 1 0 0 0 0 1 1 1 2 2 2 1 1 3 3 3 3 3 3 3 3 3 2 1
0 0 0 0 0 0 0 0 0 0 1 3 4 2 0 0 1 2 3 4 4 2 1 2 2 1 0 0 0 0 0 0 0 1 1 1 1 1 2 3 3 3 3 3 3 3 3 3 3
0 0 0 0 0 0 0 0 0 0 1 3 3 1 0 0 1 2 3 5 6 5 2 2 2 1 0 0 0 0 0 0 0 0 0 1 1 1 1 3 3 3 3 3 3 3 3 3 3
0 0 0 0 0 0 0 0 0 0 1 1 2 1 0 1 2 3 5 8 8 5 2 1 1 1 0 0 0 0 0 1 1 1 0 1 1 1 1 3 3 3 3 3 3 3 3 3 3
0 0 0 0 0 0 0 0 0 1 2 1 1 1 2 3 4 5 6 7 6 3 1 0 1 1 1 1 1 1 1 1 2 1 1 1 2 2 3 3 3 3 3 3 3 3 3 3 3
0 0 0 0 0 0 1 0 0 1 2 1 1 4 5 6 6 7 6 6 4 2 1 1 1 2 3 3 2 1 1 1 1 1 1 2 3 3 3 3 3 3 3 3 3 3 3 3 3
0 0 0 0 0 0 0 0 0 0 1 1 3 6 8 8 8 7 7 7 6 4 2 2 3 5 6 5 2 1 1 0 0 0 1 1 2 3 2 2 2 2 3 3 3 3 3 3 3
0 0 0 0 0 0 0 0 0 0 0 2 3 5 6 7 8 8 9 11 11 9 6 4 5 6 6 5 3 1 1 1 1 0 0 1 2 5 4 2 2 2 3 3 3 3 3 3 3
0 0 0 0 0 0 0 0 0 0 0 1 2 4 6 7 6 5 9 13 15 13 10 8 7 8 7 5 4 2 2 2 2 1 0 1 3 7 7 5 3 2 2 3 3 3 3 3 3
0 0 0 0 0 0 1 1 0 0 0 1 2 5 7 7 5 3 6 12 14 13 12 10 11 13 11 8 6 5 4 3 2 1 0 1 4 7 8 6 5 3 2 2 3 4 4 3 3
0 0 0 0 0 0 1 1 0 0 1 2 4 6 8 8 6 3 5 9 11 12 12 11 12 15 14 11 9 8 5 3 2 1 1 1 3 6 7 7 6 5 3 2 3 5 5 4 4
0 0 0 0 0 0 1 1 0 0 1 4 5 5 6 7 7 6 6 7 9 11 13 12 11 13 13 12 10 9 7 5 4 4 3 3 4 5 7 8 8 7 6 5 5 7 7 6 5
0 0 0 0 0 0 0 0 0 0 1 4 5 4 5 6 9 9 9 8 9 12 15 15 13 13 13 11 9 9 8 7 7 6 5 4 4 6 8 8 8 8 8 8 8 9 9 8 8
0 0 0 0 0 0 0 0 0 1 1 2 3 3 4 6 10 11 11 11 11 14 18 19 17 16 15 13 10 9 8 8 9 9 8 7 6 6 7 8 8 8 9 9 10 10 11 10 9
0 0 0 0 0 0 0 0 0 0 0 0 2 3 4 7 10 12 14 15 14 15 19 21 20 18 18 17 13 10 9 9 10 11 11 10 8 6 6 7 7 8 9 10 11 12 13 12 11
0 0 0 0 0 0 0 0 0 1 1 1 2 4 4 7 12 15 16 16 16 16 19 21 20 19 20 20 17 13 11 10 10 11 11 10 8 8 8 7 8 9 10 12 13 14 15 14 13
0 0 0 0 0 0 0 0 1 2 3 3 4 6 7 9 15 18 17 16 16 16 19 21 21 21 22 21 18 14 12 10 9 9 10 10 9 10 11 10 10 10 11 12 14 16 17 16 14
0 0 0 0 0 0 0 0 1 3 5 6 7 9 10 12 16 18 17 15 15 16 17 19 19 21 23 24 20 15 11 9 8 8 8 9 10 12 13 13 12 11 11 12 13 16 17 16 14
0 0 0 0 0 0 0 0 1 4 6 7 9 10 11 14 16 17 18 17 16 15 14 16 19 22 26 27 24 18 12 9 9 9 8 8 9 10 11 13 12 11 10 11 12 13 14 13 12
0 0 0 0 0 0 0 1 2 4 5 6 8 9 11 15 18 18 20 20 18 15 12 14 19 25 28 28 26 21 16 12 11 10 9 8 7 7 10 13 13 11 10 10 10 10 10 9 9
Wind_Speed
9 6 3 1 3 4 5 5 7 9 7 8 10 11 10 8 5 6 3 6 7 5 4 7 10 11 11 11 12 12 12 13 14 15 15 15 16 17 17 16 17 17 17 16 16 15 15 15 15
6 5 1 2 4 4 4 6 10 10 11 10 11 11 10 8 7 7 4 6 8 6 4 6 10 11 11 11 11 11 12 12 13 14 14 14 15 16 16 15 16 16 16 15 15 15 14 14 13
6 3 1 3 3 4 5 7 11 11 10 8 7 7 6 6 6 5 6 9 8 6 4 6 11 11 12 11 11 11 11 11 12 13 13 14 14 15 15 15 15 15 14 14 14 14 14 13 12
3 1 2 4 6 3 7 8 11 12 9 8 8 7 5 5 5 8 11 10 9 6 4 6 11 11 11 11 11 11 11 11 11 12 13 13 13 14 14 14 14 14 14 14 13 13 13 12 11
1 3 4 5 6 6 7 9 10 10 6 9 10 8 5 4 10 12 11 10 9 6 4 6 11 11 11 11 10 10 10 11 11 12 12 12 12 13 13 13 14 13 13 13 13 12 12 11 10
2 3 5 4 6 7 6 8 11 13 13 11 10 8 3 5 10 10 10 9 9 8 5 5 10 11 11 10 10 10 10 10 10 11 11 11 11 13 13 13 13 13 13 13 12 12 11 10 9
2 3 4 6 6 6 6 7 10 11 10 7 7 6 4 4 7 9 9 9 8 7 5 4 5 7 10 10 9 9 9 9 9 10 10 11 11 12 12 12 12 12 12 12 12 11 10 9 8
3 4 4 4 6 5 6 7 9 10 8 9 7 7 5 5 7 8 8 7 7 6 5 4 3 3 3 5 8 8 8 8 8 9 10 10 11 11 12 11 11 12 12 11 11 10 9 8 7
3 5 4 5 6 6 8 10 8 8 10 6 5 6 9 9 10 9 7 6 5 6 4 4 4 3 3 3 6 6 6 6 6 6 9 8 4 5 6 9 11 11 11 11 10 9 8 7 6
5 4 6 6 8 9 10 11 8 8 10 8 9 10 11 10 10 9 8 7 6 5 5 4 4 3 3 4 3 2 2 2 2 2 3 3 3 3 5 8 11 11 10 10 9 8 6 4 2
5 5 5 7 10 11 10 9 7 11 7 10 13 13 11 10 9 8 7 7 6 6 5 4 4 4 4 2 3 1 1 1 2 2 3 3 3 2 3 3 4 5 6 4 4 3 2 2 2
4 5 7 7 9 10 10 8 8 8 9 12 14 14 11 10 8 8 8 7 6 6 6 5 4 4 3 3 3 2 2 2 2 2 3 3 2 2 2 2 3 3 2 3 2 1 2 2 2
4 5 7 7 8 8 10 9 9 8 12 13 14 12 11 9 7 7 7 7 7 6 5 5 5 4 4 3 2 3 2 3 3 2 3 4 3 3 3 3 3 3 3 3 3 2 2 2 2
3 5 6 7 8 8 11 8 7 9 13 14 13 11 9 9 8 7 8 7 7 7 6 5 5 5 4 3 2 2 2 3 3 3 3 4 3 4 4 3 3 3 3 3 3 3 3 2 1
5 6 4 5 6 6 10 6 6 10 13 13 12 11 9 8 8 9 9 8 8 7 6 6 5 5 4 3 3 3 2 3 3 2 3 4 4 4 4 3 3 3 3 3 3 3 2 2 2
4 4 2 2 5 5 8 5 8 11 12 11 11 11 9 7 8 8 9 8 8 7 6 6 6 6 4 3 3 2 2 3 3 2 3 4 4 4 4 3 3 3 3 3 3 2 2 2 2
2 2 2 3 5 5 5 5 9 11 12 11 11 11 10 8 8 8 9 9 8 8 7 6 5 5 4 4 3 3 3 2 2 2 2 3 4 4 4 3 2 3 3 2 3 2 2 2 2
4 3 2 4 4 5 4 5 9 11 11 11 11 10 9 10 9 9 9 9 8 7 7 6 5 5 4 3 3 2 2 1 2 2 2 3 3 4 3 3 3 3 3 2 2 3 2 2 2
5 4 3 5 5 5 5 6 9 10 10 10 9 10 10 9 8 9 10 10 8 7 7 6 6 5 4 3 3 2 2 1 1 2 3 3 3 3 3 3 3 3 3 3 3 3 3 2 2
4 3 3 3 3 4 4 4 7 9 12 13 13 12 12 9 8 9 9 9 9 8 7 7 6 6 5 4 3 2 3 2 2 1 2 3 3 3 4 4 3 3 3 3 3 3 2 1 2
3 5 5 4 1 3 4 0 3 5 5 7 10 11 11 12 12 11 10 10 9 9 9 8 7 6 5 4 3 2 2 2 2 1 1 1 3 3 3 4 3 3 3 3 3 4 4 3 1
6 7 5 5 4 1 3 2 5 5 4 6 8 9 10 11 11 11 11 11 11 10 9 7 7 6 5 5 4 4 3 3 2 2 1 1 2 3 3 3 4 3 3 3 3 3 3 4 2
7 4 3 3 4 1 1 3 5 3 5 7 9 10 11 11 12 12 13 12 11 10 9 8 7 6 5 5 5 5 3 3 2 2 2 1 1 1 2 2 2 3 2 3 3 3 3 3 3
3 3 4 4 4 0 4 4 5 5 8 8 7 9 10 11 11 11 11 10 9 8 8 7 7 6 6 6 6 6 6 4 4 3 2 1 1 1 1 3 2 2 2 3 3 2 3 2 2
3 6 3 4 3 5 3 3 6 8 8 9 9 9 9 10 10 10 11 10 10 10 9 8 9 7 6 6 6 6 6 5 5 4 3 3 1 1 2 2 2 2 2 3 3 2 2 2 2
4 9 8 5 5 4 1 4 6 6 6 6 7 7 8 10 10 11 12 12 12 11 10 9 9 8 7 6 5 5 5 4 3 4 3 3 2 2 2 3 3 3 3 3 3 2 2 2 2
4 3 8 7 2 1 3 3 4 1 4 5 6 6 8 9 10 11 11 11 12 12 11 11 10 8 7 7 6 5 4 4 4 3 3 2 2 2 2 3 3 2 2 2 3 2 2 2 2
7 7 6 6 5 2 3 3 4 4 5 6 7 7 7 8 9 9 10 11 11 11 10 10 10 9 8 7 6 5 5 4 4 4 3 3 3 2 3 2 3 2 2 2 2 2 2 2 1
1 2 5 4 5 7 3 7 6 9 8 8 9 8 8 8 9 9 9 10 10 10 9 9 9 8 8 8 6 6 5 5 4 4 4 4 3 3 3 3 3 3 2 2 2 2 2 2 1
5 5 7 5 4 4 5 7 4 8 8 8 7 7 7 8 8 8 9 9 9 9 9 9 9 9 9 8 6 6 5 5 4 4 4 4 4 3 3 3 3 3 3 3 3 2 2 2 2
Wind_Direction
161 158 156 130 57 57 75 76 88 84 69 62 73 78 76 63 87 122 162 140 132 129 130 122 115 110 106 102 102 103 101 101 104 108 111 114 117 118 119 121 122 123 123 123 125 126 128 128 127
156 159 140 54 75 77 74 95 91 97 116 105 81 79 75 71 83 108 127 138 131 128 128 122 118 115 111 106 104 104 105 105 108 112 114 117 120 120 123 124 124 125 126 128 129 129 131 129 128
168 175 95 67 82 116 112 106 105 103 105 92 83 62 64 93 106 124 146 138 126 123 125 130 124 119 115 110 108 107 108 109 113 118 119 119 124 125 127 127 127 128 128 129 129 130 131 130 130
155 122 54 75 91 109 119 118 111 101 83 75 91 72 57 88 119 135 137 133 127 128 131 134 127 123 118 114 111 110 110 113 117 122 124 124 127 130 130 130 130 131 131 131 131 132 132 131 130
126 90 66 72 86 97 112 118 109 98 87 86 91 92 70 62 111 128 135 135 133 136 138 138 131 126 122 117 114 113 114 115 121 126 128 129 131 135 133 133 134 135 134 133 133 135 136 136 134
75 81 85 88 87 94 109 115 104 100 108 104 100 100 89 116 122 134 136 137 139 141 141 137 136 132 127 122 118 116 117 119 123 130 134 134 135 140 136 137 138 140 138 137 137 138 140 141 140
129 101 118 122 106 103 117 119 113 119 120 118 119 99 115 133 134 135 132 130 132 138 138 135 140 135 132 128 125 124 123 125 128 133 140 141 141 140 141 143 144 143 143 143 143 144 145 145 144
160 105 103 114 115 108 114 109 119 119 113 124 115 120 148 165 132 123 120 122 123 128 136 140 136 134 138 136 135 135 132 130 132 138 144 146 147 148 150 151 151 151 150 150 150 151 151 149 148
132 91 136 158 141 134 117 102 100 101 107 108 98 122 147 141 124 115 114 112 117 126 136 141 141 142 146 145 143 139 137 137 136 137 146 145 142 146 153 157 158 158 158 158 159 160 159 156 149
120 132 173 164 147 140 130 122 119 103 100 96 99 113 131 130 128 129 136 139 140 145 151 152 152 153 149 151 137 134 134 133 131 129 142 141 143 151 160 164 166 164 162 162 167 170 167 161 133
140 156 146 134 139 136 129 124 111 118 121 141 140 143 142 135 135 142 147 149 154 156 150 151 155 154 154 145 132 130 117 130 134 136 141 138 138 152 161 155 164 162 161 157 162 162 154 148 140
130 136 130 137 134 132 132 130 118 128 150 152 146 148 145 145 150 154 154 151 145 143 152 154 151 148 147 134 138 152 157 149 144 149 147 142 140 147 151 147 145 145 144 145 146 138 144 147 148
104 123 117 125 125 125 117 121 123 129 138 143 143 146 150 153 156 157 151 146 140 139 143 147 144 140 142 133 147 143 154 150 148 143 147 145 143 143 141 141 144 149 144 145 146 149 147 147 153
139 111 119 127 123 123 118 116 111 142 145 147 150 155 159 159 157 151 147 145 146 150 153 149 144 141 139 139 142 144 148 145 137 138 146 143 142 137 131 130 136 141 145 148 150 151 144 140 125
103 97 97 127 124 135 114 106 144 156 152 154 158 161 161 161 155 157 160 157 156 157 153 150 152 143 142 143 144 134 141 135 135 143 141 134 135 134 134 132 135 143 146 145 135 130 126 132 124
75 79 105 214 146 148 114 159 178 165 160 161 162 161 162 165 162 165 162 160 159 155 150 154 153 143 144 139 135 132 133 130 139 145 141 136 135 137 129 130 139 141 135 132 129 127 123 120 121
51 129 192 230 185 153 131 181 183 172 166 168 168 166 166 166 165 167 165 162 160 156 151 149 144 143 140 134 132 127 121 126 138 139 139 139 140 140 136 142 144 138 128 133 148 133 134 130 128
209 181 201 212 201 153 156 186 177 180 172 172 170 167 168 171 176 170 165 163 159 156 151 149 146 147 138 126 111 100 93 107 117 131 145 147 148 145 137 140 142 140 131 133 137 132 123 133 137
180 183 220 232 196 156 172 182 185 182 175 172 170 170 173 180 176 166 164 160 155 154 153 153 150 151 140 129 132 134 139 139 128 142 147 146 149 148 142 144 139 141 145 156 148 131 127 128 128
175 184 230 259 178 148 164 190 187 181 184 178 174 176 179 176 169 168 167 164 163 163 163 161 158 157 156 157 155 154 148 147 145 135 130 142 151 155 150 143 141 143 140 142 145 144 140 159 146
222 198 201 193 139 107 122 345 212 198 179 177 178 177 179 178 178 176 173 171 167 169 173 172 169 163 160 155 136 117 91 73 73 98 119 147 146 142 142 145 147 147 148 161 162 159 155 167 193
233 227 196 161 116 207 149 191 257 203 182 183 186 182 183 184 180 178 175 174 175 178 175 168 163 162 161 151 139 139 143 153 179 177 161 156 148 143 147 145 150 154 157 164 174 167 163 160 186
221 222 180 154 129 91 48 137 267 188 190 200 191 189 187 185 180 180 179 179 178 175 171 167 161 158 156 149 150 150 157 170 169 155 145 151 143 137 144 147 154 159 163 169 175 168 158 164 177
192 83 37 49 74 232 225 162 248 212 200 198 194 192 189 182 177 176 178 174 170 170 168 165 160 162 163 161 161 164 168 167 160 163 162 168 158 139 163 152 158 166 173 173 177 173 158 162 169
103 96 49 4 1 251 233 165 234 225 196 189 190 190 188 182 179 175 170 168 167 168 169 168 166 169 170 167 169 172 173 171 173 176 174 173 174 180 200 173 168 179 194 183 172 168 162 162 170
185 143 156 187 217 271 300 212 247 231 194 174 182 181 181 180 182 180 175 172 171 172 171 170 172 174 173 171 173 170 167 166 172 176 173 176 181 189 185 167 174 191 190 177 165 164 168 164 183
164 174 167 145 171 249 273 277 310 43 132 142 167 174 180 182 182 181 176 174 173 174 174 173 172 172 174 174 168 166 167 165 170 170 162 167 177 175 173 161 165 174 173 162 159 160 168 164 177
166 159 104 119 153 217 281 251 222 208 183 170 176 180 181 177 176 178 176 177 177 178 175 170 173 177 174 173 174 170 173 169 166 160 164 168 171 164 153 151 150 153 153 151 144 144 153 154 174
106 115 114 128 158 159 210 258 219 187 181 179 184 180 175 175 176 176 177 175 173 170 170 171 175 174 175 177 176 172 174 172 167 168 176 172 166 159 159 158 146 138 131 127 124 129 133 145 159
175 180 148 156 219 167 168 255 244 176 180 177 185 186 174 170 172 175 172 166 165 167 171 176 177 178 180 178 172 174 172 166 167 172 173 164 163 168 163 148 138 137 131 126 131 142 134 144 154